TimeMST,TemperatureF,Dew PointF,Humidity,Sea Level PressureIn,VisibilityMPH,Wind Direction,Wind SpeedMPH,Gust SpeedMPH,PrecipitationIn,Events,Conditions,WindDirDegrees,DateUTC
12:53 AM,10.9,7.0,84,30.58,8.0,SE,6.9,-,0.00,,Clear,140,2013-01-03 07:53:00
1:53 AM,12.9,8.1,81,30.56,8.0,SE,8.1,-,N/A,,Mostly Cloudy,140,2013-01-03 08:53:00
2:53 AM,10.0,6.1,84,30.59,5.0,SE,5.8,-,0.00,Snow,Light Snow,140,2013-01-03 09:53:00
3:53 AM,9.0,5.0,84,30.59,8.0,SE,8.1,-,0.00,,Partly Cloudy,140,2013-01-03 10:53:00
4:53 AM,9.0,3.9,80,30.59,8.0,SE,9.2,-,N/A,,Clear,130,2013-01-03 11:53:00
5:53 AM,9.0,3.9,80,30.61,10.0,SE,9.2,-,N/A,,Partly Cloudy,140,2013-01-03 12:53:00
6:53 AM,8.1,3.9,83,30.61,10.0,SE,9.2,-,N/A,,Clear,130,2013-01-03 13:53:00
7:53 AM,8.1,3.9,83,30.62,8.0,ESE,8.1,-,N/A,,Scattered Clouds,120,2013-01-03 14:53:00
8:53 AM,10.0,5.0,80,30.63,9.0,SE,9.2,-,N/A,,Partly Cloudy,130,2013-01-03 15:53:00
9:53 AM,12.0,5.0,73,30.64,9.0,SE,6.9,-,N/A,,Partly Cloudy,130,2013-01-03 16:53:00
10:53 AM,16.0,8.1,71,30.63,9.0,South,8.1,-,N/A,,Partly Cloudy,180,2013-01-03 17:53:00
11:53 AM,18.0,9.0,68,30.61,9.0,Calm,Calm,-,N/A,,Partly Cloudy,0,2013-01-03 18:53:00
12:53 PM,19.9,10.9,68,30.58,10.0,Calm,Calm,-,N/A,,Partly Cloudy,0,2013-01-03 19:53:00
1:53 PM,21.0,10.9,65,30.56,9.0,North,5.8,-,N/A,,Partly Cloudy,350,2013-01-03 20:53:00
2:53 PM,21.0,10.0,63,30.58,9.0,NNW,6.9,-,N/A,,Scattered Clouds,340,2013-01-03 21:53:00
3:53 PM,19.0,10.0,68,30.60,8.0,NNW,4.6,-,N/A,,Mostly Cloudy,330,2013-01-03 22:53:00
4:53 PM,15.8,8.6,73,30.44,8.0,NW,5.8,-,N/A,,Mostly Cloudy,310,2013-01-03 23:53:00
5:53 PM,12.0,7.0,80,30.62,9.0,North,6.9,-,N/A,,Scattered Clouds,350,2013-01-04 00:53:00
6:53 PM,8.1,3.9,83,30.65,7.0,North,6.9,-,N/A,,Scattered Clouds,360,2013-01-04 01:53:00
7:53 PM,9.0,5.0,84,30.63,7.0,NNW,3.5,-,N/A,,Scattered Clouds,340,2013-01-04 02:53:00
8:53 PM,9.0,7.0,92,30.62,6.0,West,4.6,-,N/A,,Mostly Cloudy,260,2013-01-04 03:53:00
9:53 PM,10.0,6.1,84,30.61,5.0,WSW,3.5,-,N/A,,Mostly Cloudy,250,2013-01-04 04:53:00
10:53 PM,10.0,5.0,80,30.60,5.0,WSW,3.5,-,N/A,,Haze,240,2013-01-04 05:53:00
11:53 PM,10.9,7.0,84,30.59,5.0,Calm,Calm,-,N/A,,Mostly Cloudy,0,2013-01-04 06:53:00